Regional Weather Roundup
Issued by NWS Newport/Morehead, NC

Current Version | Previous Version | Text Only | Print | Product List | Glossary On
Versions: 1 2 3 4 5 6 7 8 9 10 11 12 13 14 15 16 17 18 19 20 21 22 23 24 25 26 27 28 29 30 31 32 33 34 35 36 37 38 39 40 41 42 43 44 45 46 47 48 49 50
000
ASUS42 KMHX 271813
RWRMHX
WEATHER ROUNDUP FOR EASTERN NORTH CAROLINA
NATIONAL WEATHER SERVICE NEWPORT/MOREHEAD CITY NC
200 PM EDT MON MAR 27 2017

NOTE: "FAIR" INDICATES FEW OR NO CLOUDS BELOW 12,000 FEET
WITH NO SIGNIFICANT WEATHER AND/OR OBSTRUCTIONS TO VISIBILITY

NCZ015>017-031-032-045>047-102-103-271900-
NORTH COAST

CITY           SKY/WX    TMP DP  RH WIND       PRES   REMARKS
EDENTON        CLOUDY    77  56  48 S9        30.10F
ELIZABETH CITY MOSUNNY   77  54  44 S12       30.09F
KITTY HAWK     NOT AVBL
MANTEO         CLOUDY    67  56  66 S12       30.12F

$$

NCZ045>047-081-094-103-104-271900-
CENTRAL COAST

CITY           SKY/WX    TMP DP  RH WIND       PRES   REMARKS
FRISCO         SUNNY     74  55  51 S12       30.13F

$$

NCZ095-097-098-100-101-271900-
SOUTHERN COAST

CITY           SKY/WX    TMP DP  RH WIND       PRES   REMARKS
BEAUFORT       SUNNY     74  56  53 S10       30.12F
CEDAR ISLAND   NOT AVBL
JACKSONVILLE   NOT AVBL
PINEY ISLAND   MOCLDY   N/A N/A N/A E7        30.11F
WILMINGTON     CLOUDY    75  54  47 S9        30.11F


$$

NCZ011>013-027>030-043-044-078>080-089-090>093-098-271900-
COASTAL PLAIN

CITY           SKY/WX    TMP DP  RH WIND       PRES   REMARKS
AHOSKIE          N/A     72  56  57 S7        30.10F
CLINTON        SUNNY     74  58  56 S3        30.11F
ELIZABETHTOWN  MOSUNNY   76  56  49 S8        30.11F
GOLDSBORO      CLOUDY    75  57  53 SW12      30.09F
GREENVILLE     CLOUDY    75  54  46 SW10      30.12F
HAVELOCK       PTSUNNY   76  51  41 VRB7      30.12F
KENANSVILLE    CLOUDY    75  55  50 SW5       30.11F
KINSTON        CLOUDY    79  54  41 S9        30.10F
NEW BERN       PTSUNNY   77  52  41 SW5       30.11F
RICHLANDS      PTSUNNY   77  55  46 SE8G16    30.11F
ROCKY MOUNT    MOSUNNY   74  59  59 S12G23    30.09F
WASHINGTON     MOSUNNY   75  54  49 S7        30.11F
WHITEVILLE     PTSUNNY   76  55  47 S3        30.11F

$$

AMZ130-135-150-152-154-156-158-170-250-252-270-ANZ085-086-088-633-658-670-271900-
MARINE OBSERVATIONS

STATION/POSITION TIME  TEMP    WIND        PRES    WAVE   SWELL
                       AIR SEA DIR/SP/G            HT/PER HT/PER
                 (UTC) (F)     (DEG/KT/KT) (MB)    (FT/S) (FT/S)
CHESAPEAKE LIGHT NOT AVBL
64 E VA BEACH    1750   56 51  200/  6/  8 1019.9    3/10   3/10
DUCK             1736   71 49  210/  6/  9 1019.3
2 E DUCK         1730      55                N/A     3/ 7   2/18
OREGON INLET     1748          180/ 10/ 12   N/A
13E OREGON INLT  1748      56                N/A     4/ 7   3/ 7
HATTERAS CG      1736   70 60  200/  3/  7 1020.4
DIAMOND BUOY     1750   71 76  200/  8/ 12 1020.6    4/ 9   3/ 9
CAPE LOOKOUT     1700   68     150/  8/  9 1021.0
BEAUFORT LAB     1736   69 58  180/  7/  8 1019.6
30 SE NEW RVR IN 1708   69      10/  2/  4 1021.5
30 SE NEW RVR IN 1743      69                N/A     4/ 9   2/11
27 SE WRIGHTSVLE 1708   69 64  250/  2/  6 1020.5
5 SE WRIGHTSVLE  1708   65 61  140/  4/  8 1020.9
225 S CAPE HAT   1750   69 72   90/ 10/ 12 1020.7    6/10   5/10
41 SE CHARLESTON 1650   71 73  280/  4/  6 1020.9    5/ 9   5/ 9

$$




USA.gov is the U.S. government's official web portal to all federal, state and local government web resources and services.